Time,TemperatureF,DewpointF,PressureIn,WindDirection,WindDirectionDegrees,WindSpeedMPH,WindSpeedGustMPH,Humidity,HourlyPrecipIn,Conditions,Clouds,dailyrainin,SoftwareType,DateUTC
2013-02-11 00:02:00,45.0,31.0,-100.00,SSE,160,11.0,24.0,59,-99.99,,,-99.99,,2013-02-11 05:02:00,
2013-02-11 00:12:00,44.0,33.0,-100.00,South,175,7.0,18.0,64,-99.99,,,-99.99,,2013-02-11 05:12:00,
2013-02-11 00:22:00,44.0,36.0,-100.00,South,170,7.0,21.0,75,-99.99,,,-99.99,,2013-02-11 05:22:00,
2013-02-11 00:32:00,43.0,38.0,-100.00,SE,145,7.0,19.0,81,-99.99,,,-99.99,,2013-02-11 05:32:00,
2013-02-11 00:42:00,43.0,38.0,-100.00,SE,130,9.0,20.0,83,-99.99,,,-99.99,,2013-02-11 05:42:00,
2013-02-11 00:52:00,43.0,38.0,-100.00,SE,145,7.0,19.0,82,-99.99,,,-99.99,,2013-02-11 05:52:00,
2013-02-11 01:02:00,44.0,38.0,-100.00,South,170,8.0,21.0,82,-99.99,,,-99.99,,2013-02-11 06:02:00,
2013-02-11 01:11:00,44.0,38.0,-100.00,East,100,7.0,27.0,81,-99.99,,,-99.99,,2013-02-11 06:11:00,
2013-02-11 01:22:00,44.0,38.0,-100.00,East,100,7.0,27.0,81,-99.99,,,-99.99,,2013-02-11 06:22:00,
2013-02-11 01:32:00,44.0,38.0,-100.00,East,100,7.0,27.0,81,-99.99,,,-99.99,,2013-02-11 06:32:00,
2013-02-11 01:42:00,44.0,39.0,-100.00,South,180,6.0,16.0,81,-99.99,,,-99.99,,2013-02-11 06:42:00,
2013-02-11 01:52:00,44.0,39.0,-100.00,SSE,155,8.0,17.0,82,-99.99,,,-99.99,,2013-02-11 06:52:00,
2013-02-11 02:02:00,44.0,40.0,-100.00,SSE,165,8.0,24.0,82,-99.99,,,-99.99,,2013-02-11 07:02:00,
2013-02-11 02:12:00,44.0,40.0,-100.00,South,175,8.0,17.0,83,-99.99,,,-99.99,,2013-02-11 07:12:00,
2013-02-11 02:22:00,44.0,41.0,-100.00,SSE,150,9.0,17.0,86,-99.99,,,-99.99,,2013-02-11 07:22:00,
2013-02-11 02:32:00,44.0,41.0,-100.00,SSE,160,4.0,20.0,89,-99.99,,,-99.99,,2013-02-11 07:32:00,
2013-02-11 02:42:00,44.0,41.0,-100.00,SSE,150,10.0,19.0,90,-99.99,,,-99.99,,2013-02-11 07:42:00,
2013-02-11 02:52:00,44.0,42.0,-100.00,SSE,165,7.0,19.0,91,-99.99,,,-99.99,,2013-02-11 07:52:00,
2013-02-11 03:01:00,44.0,42.0,-100.00,South,175,7.0,21.0,92,-99.99,,,-99.99,,2013-02-11 08:01:00,
2013-02-11 03:11:00,44.0,42.0,-100.00,SSE,160,7.0,18.0,94,-99.99,,,-99.99,,2013-02-11 08:11:00,
2013-02-11 03:21:00,44.0,42.0,-100.00,SE,135,9.0,21.0,94,-99.99,,,-99.99,,2013-02-11 08:21:00,
2013-02-11 03:32:00,43.0,42.0,-100.00,SE,140,10.0,19.0,96,-99.99,,,-99.99,,2013-02-11 08:32:00,
2013-02-11 03:42:00,44.0,43.0,-100.00,South,170,7.0,15.0,97,-99.99,,,-99.99,,2013-02-11 08:42:00,
2013-02-11 03:52:00,43.0,42.0,-100.00,South,185,7.0,21.0,97,-99.99,,,-99.99,,2013-02-11 08:52:00,
2013-02-11 04:02:00,43.0,42.0,-100.00,South,170,7.0,17.0,98,-99.99,,,-99.99,,2013-02-11 09:02:00,
2013-02-11 04:12:00,43.0,43.0,-100.00,SSE,160,7.0,16.0,98,-99.99,,,-99.99,,2013-02-11 09:12:00,
2013-02-11 04:21:00,44.0,43.0,-100.00,South,170,7.0,16.0,98,-99.99,,,-99.99,,2013-02-11 09:21:00,
2013-02-11 04:32:00,44.0,43.0,-100.00,South,175,4.0,16.0,98,-99.99,,,-99.99,,2013-02-11 09:32:00,
2013-02-11 04:42:00,44.0,43.0,-100.00,SW,220,7.0,14.0,98,-99.99,,,-99.99,,2013-02-11 09:42:00,
2013-02-11 04:51:00,44.0,44.0,-100.00,South,180,7.0,16.0,98,-99.99,,,-99.99,,2013-02-11 09:51:00,
2013-02-11 05:01:00,44.0,44.0,-100.00,SSW,205,3.0,12.0,98,-99.99,,,-99.99,,2013-02-11 10:01:00,
2013-02-11 05:11:00,45.0,44.0,-100.00,SW,225,6.0,15.0,98,-99.99,,,-99.99,,2013-02-11 10:11:00,
2013-02-11 05:21:00,45.0,45.0,-100.00,South,190,6.0,14.0,98,-99.99,,,-99.99,,2013-02-11 10:21:00,
2013-02-11 05:32:00,46.0,45.0,-100.00,SSW,195,6.0,13.0,98,-99.99,,,-99.99,,2013-02-11 10:32:00,
2013-02-11 05:42:00,46.0,45.0,-100.00,SSW,210,6.0,12.0,98,-99.99,,,-99.99,,2013-02-11 10:42:00,
2013-02-11 05:52:00,46.0,46.0,-100.00,SSW,205,7.0,16.0,99,-99.99,,,-99.99,,2013-02-11 10:52:00,
2013-02-11 06:02:00,46.0,45.0,-100.00,South,190,5.0,12.0,99,-99.99,,,-99.99,,2013-02-11 11:02:00,
2013-02-11 06:11:00,46.0,46.0,-100.00,SSW,200,9.0,20.0,99,-99.99,,,-99.99,,2013-02-11 11:11:00,
2013-02-11 06:22:00,46.0,46.0,-100.00,SSW,195,7.0,16.0,99,-99.99,,,-99.99,,2013-02-11 11:22:00,
2013-02-11 06:32:00,46.0,46.0,-100.00,SSW,210,6.0,16.0,99,-99.99,,,-99.99,,2013-02-11 11:32:00,
2013-02-11 06:42:00,46.0,46.0,-100.00,SW,235,7.0,16.0,99,-99.99,,,-99.99,,2013-02-11 11:42:00,
2013-02-11 06:52:00,46.0,46.0,-100.00,SE,140,4.0,13.0,99,-99.99,,,-99.99,,2013-02-11 11:52:00,
2013-02-11 07:03:00,46.0,46.0,-100.00,SSW,210,4.0,14.0,99,-99.99,,,-99.99,,2013-02-11 12:03:00,
2013-02-11 07:12:00,47.0,47.0,-100.00,SSW,195,4.0,22.0,99,-99.99,,,-99.99,,2013-02-11 12:12:00,
2013-02-11 07:22:00,46.0,46.0,-100.00,SSW,195,5.0,13.0,99,-99.99,,,-99.99,,2013-02-11 12:22:00,
2013-02-11 07:32:00,47.0,46.0,-100.00,South,175,6.0,15.0,99,-99.99,,,-99.99,,2013-02-11 12:32:00,
2013-02-11 07:42:00,47.0,46.0,-100.00,South,190,6.0,14.0,99,-99.99,,,-99.99,,2013-02-11 12:42:00,
2013-02-11 07:52:00,47.0,47.0,-100.00,South,185,8.0,14.0,99,-99.99,,,-99.99,,2013-02-11 12:52:00,
2013-02-11 08:02:00,47.0,47.0,-100.00,South,185,4.0,17.0,99,-99.99,,,-99.99,,2013-02-11 13:02:00,
2013-02-11 08:12:00,47.0,47.0,-100.00,WSW,245,6.0,17.0,99,-99.99,,,-99.99,,2013-02-11 13:12:00,
2013-02-11 08:22:00,47.0,47.0,-100.00,SSW,200,7.0,15.0,99,-99.99,,,-99.99,,2013-02-11 13:22:00,
2013-02-11 08:33:00,48.0,47.0,-100.00,South,170,7.0,17.0,99,-99.99,,,-99.99,,2013-02-11 13:33:00,
2013-02-11 08:42:00,48.0,47.0,-100.00,South,170,4.0,13.0,99,-99.99,,,-99.99,,2013-02-11 13:42:00,
2013-02-11 08:52:00,48.0,48.0,-100.00,SW,220,9.0,18.0,98,-99.99,,,-99.99,,2013-02-11 13:52:00,
2013-02-11 09:02:00,48.0,48.0,-100.00,SSW,195,8.0,17.0,98,-99.99,,,-99.99,,2013-02-11 14:02:00,
2013-02-11 09:11:00,49.0,49.0,-100.00,SW,225,11.0,17.0,98,-99.99,,,-99.99,,2013-02-11 14:11:00,
2013-02-11 09:22:00,49.0,49.0,-100.00,SW,220,7.0,14.0,98,-99.99,,,-99.99,,2013-02-11 14:22:00,
2013-02-11 09:33:00,50.0,49.0,-100.00,SW,235,11.0,18.0,98,-99.99,,,-99.99,,2013-02-11 14:33:00,
2013-02-11 09:42:00,50.0,49.0,-100.00,SW,235,12.0,22.0,97,-99.99,,,-99.99,,2013-02-11 14:42:00,
2013-02-11 09:52:00,50.0,49.0,-100.00,WSW,255,9.0,22.0,96,-99.99,,,-99.99,,2013-02-11 14:52:00,
2013-02-11 10:02:00,50.0,49.0,-100.00,WSW,245,11.0,19.0,96,-99.99,,,-99.99,,2013-02-11 15:02:00,
2013-02-11 10:11:00,51.0,50.0,-100.00,SW,230,11.0,27.0,96,-99.99,,,-99.99,,2013-02-11 15:11:00,
2013-02-11 10:22:00,51.0,50.0,-100.00,SW,225,17.0,25.0,94,-99.99,,,-99.99,,2013-02-11 15:22:00,
2013-02-11 10:32:00,51.0,49.0,-100.00,SW,235,12.0,28.0,94,-99.99,,,-99.99,,2013-02-11 15:32:00,
2013-02-11 10:42:00,50.0,48.0,-100.00,WSW,245,19.0,30.0,93,-99.99,,,-99.99,,2013-02-11 15:42:00,
2013-02-11 10:52:00,45.0,43.0,-100.00,West,260,10.0,22.0,94,-99.99,,,-99.99,,2013-02-11 15:52:00,
2013-02-11 11:02:00,45.0,44.0,-100.00,West,260,6.0,20.0,94,-99.99,,,-99.99,,2013-02-11 16:02:00,
2013-02-11 11:12:00,44.0,42.0,-100.00,WSW,245,9.0,17.0,94,-99.99,,,-99.99,,2013-02-11 16:12:00,
2013-02-11 11:22:00,44.0,42.0,-100.00,WSW,245,12.0,24.0,94,-99.99,,,-99.99,,2013-02-11 16:22:00,
2013-02-11 11:32:00,43.0,42.0,-100.00,WSW,255,9.0,22.0,94,-99.99,,,-99.99,,2013-02-11 16:32:00,
2013-02-11 11:42:00,42.0,41.0,-100.00,WSW,250,15.0,29.0,94,-99.99,,,-99.99,,2013-02-11 16:42:00,
2013-02-11 11:52:00,42.0,41.0,-100.00,WSW,240,11.0,23.0,94,-99.99,,,-99.99,,2013-02-11 16:52:00,
2013-02-11 12:02:00,42.0,40.0,-100.00,West,270,11.0,21.0,94,-99.99,,,-99.99,,2013-02-11 17:02:00,
2013-02-11 12:11:00,42.0,41.0,-100.00,West,275,6.0,15.0,94,-99.99,,,-99.99,,2013-02-11 17:11:00,
2013-02-11 12:22:00,43.0,41.0,-100.00,West,275,4.0,12.0,94,-99.99,,,-99.99,,2013-02-11 17:22:00,
2013-02-11 12:32:00,42.0,41.0,-100.00,WSW,250,14.0,25.0,93,-99.99,,,-99.99,,2013-02-11 17:32:00,
2013-02-11 12:42:00,42.0,39.0,-100.00,West,265,7.0,18.0,92,-99.99,,,-99.99,,2013-02-11 17:42:00,
2013-02-11 12:52:00,40.0,38.0,-100.00,West,260,7.0,24.0,92,-99.99,,,-99.99,,2013-02-11 17:52:00,
2013-02-11 13:02:00,39.0,37.0,-100.00,West,260,9.0,29.0,92,-99.99,,,-99.99,,2013-02-11 18:02:00,
2013-02-11 13:11:00,39.0,37.0,-100.00,West,265,7.0,15.0,92,-99.99,,,-99.99,,2013-02-11 18:11:00,
2013-02-11 13:22:00,39.0,37.0,-100.00,WSW,255,11.0,24.0,92,-99.99,,,-99.99,,2013-02-11 18:22:00,
2013-02-11 13:32:00,39.0,37.0,-100.00,West,260,12.0,25.0,90,-99.99,,,-99.99,,2013-02-11 18:32:00,
2013-02-11 13:42:00,39.0,37.0,-100.00,WSW,255,17.0,28.0,90,-99.99,,,-99.99,,2013-02-11 18:42:00,
2013-02-11 13:53:00,39.0,36.0,-100.00,SW,230,14.0,23.0,89,-99.99,,,-99.99,,2013-02-11 18:53:00,
2013-02-11 14:02:00,40.0,36.0,-100.00,WSW,250,16.0,28.0,88,-99.99,,,-99.99,,2013-02-11 19:02:00,
2013-02-11 14:11:00,40.0,36.0,-100.00,WSW,245,13.0,31.0,87,-99.99,,,-99.99,,2013-02-11 19:11:00,
2013-02-11 14:22:00,39.0,36.0,-100.00,WSW,245,17.0,35.0,87,-99.99,,,-99.99,,2013-02-11 19:22:00,
2013-02-11 14:32:00,40.0,36.0,-100.00,WSW,245,15.0,28.0,85,-99.99,,,-99.99,,2013-02-11 19:32:00,
2013-02-11 14:42:00,39.0,35.0,-100.00,SW,235,21.0,35.0,84,-99.99,,,-99.99,,2013-02-11 19:42:00,
2013-02-11 14:51:00,39.0,35.0,-100.00,WSW,250,13.0,32.0,83,-99.99,,,-99.99,,2013-02-11 19:51:00,
2013-02-11 15:02:00,39.0,35.0,-100.00,West,265,7.0,32.0,86,-99.99,,,-99.99,,2013-02-11 20:02:00,
2013-02-11 15:11:00,38.0,36.0,-100.00,WSW,250,6.0,21.0,91,-99.99,,,-99.99,,2013-02-11 20:11:00,
2013-02-11 15:21:00,38.0,36.0,-100.00,NNW,345,2.0,14.0,92,-99.99,,,-99.99,,2013-02-11 20:21:00,
2013-02-11 15:32:00,37.0,35.0,-100.00,WSW,240,11.0,21.0,92,-99.99,,,-99.99,,2013-02-11 20:32:00,
2013-02-11 15:42:00,37.0,35.0,-100.00,WSW,250,10.0,23.0,92,-99.99,,,-99.99,,2013-02-11 20:42:00,
2013-02-11 15:52:00,36.0,35.0,-100.00,WSW,250,8.0,23.0,92,-99.99,,,-99.99,,2013-02-11 20:52:00,
2013-02-11 16:02:00,36.0,34.0,-100.00,West,260,12.0,24.0,92,-99.99,,,-99.99,,2013-02-11 21:02:00,
2013-02-11 16:12:00,36.0,34.0,-100.00,West,280,7.0,23.0,92,-99.99,,,-99.99,,2013-02-11 21:12:00,
2013-02-11 16:22:00,37.0,34.0,-100.00,WSW,250,16.0,25.0,90,-99.99,,,-99.99,,2013-02-11 21:22:00,
2013-02-11 16:32:00,37.0,34.0,-100.00,WSW,240,9.0,24.0,88,-99.99,,,-99.99,,2013-02-11 21:32:00,
2013-02-11 16:42:00,37.0,34.0,-100.00,WSW,245,13.0,23.0,88,-99.99,,,-99.99,,2013-02-11 21:42:00,
2013-02-11 16:52:00,37.0,33.0,-100.00,WSW,250,11.0,24.0,88,-99.99,,,-99.99,,2013-02-11 21:52:00,
2013-02-11 17:02:00,36.0,33.0,-100.00,West,270,13.0,21.0,88,-99.99,,,-99.99,,2013-02-11 22:02:00,
2013-02-11 17:12:00,36.0,33.0,-100.00,SW,235,12.0,21.0,89,-99.99,,,-99.99,,2013-02-11 22:12:00,
2013-02-11 17:22:00,36.0,34.0,-100.00,WSW,240,19.0,28.0,90,-99.99,,,-99.99,,2013-02-11 22:22:00,
2013-02-11 17:32:00,36.0,33.0,-100.00,WSW,240,24.0,37.0,88,-99.99,,,-99.99,,2013-02-11 22:32:00,
2013-02-11 17:42:00,36.0,32.0,-100.00,WSW,255,15.0,29.0,85,-99.99,,,-99.99,,2013-02-11 22:42:00,
2013-02-11 17:52:00,36.0,32.0,-100.00,WSW,250,16.0,25.0,83,-99.99,,,-99.99,,2013-02-11 22:52:00,
2013-02-11 18:02:00,36.0,31.0,-100.00,West,260,17.0,30.0,82,-99.99,,,-99.99,,2013-02-11 23:02:00,
2013-02-11 18:11:00,36.0,31.0,-100.00,WSW,255,20.0,34.0,81,-99.99,,,-99.99,,2013-02-11 23:11:00,
2013-02-11 18:22:00,36.0,31.0,-100.00,WSW,250,11.0,24.0,81,-99.99,,,-99.99,,2013-02-11 23:22:00,
2013-02-11 18:32:00,36.0,31.0,-100.00,WSW,240,13.0,26.0,81,-99.99,,,-99.99,,2013-02-11 23:32:00,
2013-02-11 18:42:00,36.0,31.0,-100.00,WSW,240,21.0,32.0,81,-99.99,,,-99.99,,2013-02-11 23:42:00,
2013-02-11 18:52:00,36.0,31.0,-100.00,SW,235,19.0,31.0,82,-99.99,,,-99.99,,2013-02-11 23:52:00,
2013-02-11 19:02:00,36.0,31.0,-100.00,West,260,15.0,24.0,81,-99.99,,,-99.99,,2013-02-12 00:02:00,
2013-02-11 19:12:00,36.0,31.0,-100.00,West,260,11.0,27.0,82,-99.99,,,-99.99,,2013-02-12 00:12:00,
2013-02-11 19:22:00,36.0,31.0,-100.00,WSW,245,10.0,23.0,82,-99.99,,,-99.99,,2013-02-12 00:22:00,
2013-02-11 19:32:00,36.0,31.0,-100.00,West,260,12.0,23.0,83,-99.99,,,-99.99,,2013-02-12 00:32:00,
2013-02-11 19:42:00,36.0,31.0,-100.00,WSW,245,14.0,27.0,83,-99.99,,,-99.99,,2013-02-12 00:42:00,
2013-02-11 19:52:00,36.0,31.0,-100.00,WSW,240,15.0,24.0,83,-99.99,,,-99.99,,2013-02-12 00:52:00,
2013-02-11 20:02:00,36.0,31.0,-100.00,WSW,250,12.0,28.0,83,-99.99,,,-99.99,,2013-02-12 01:02:00,
2013-02-11 20:11:00,36.0,32.0,-100.00,WSW,250,19.0,29.0,84,-99.99,,,-99.99,,2013-02-12 01:11:00,
2013-02-11 20:22:00,36.0,31.0,-100.00,West,280,10.0,26.0,84,-99.99,,,-99.99,,2013-02-12 01:22:00,
2013-02-11 20:32:00,36.0,32.0,-100.00,WSW,250,16.0,32.0,85,-99.99,,,-99.99,,2013-02-12 01:32:00,
2013-02-11 20:42:00,35.0,32.0,-100.00,West,260,15.0,30.0,86,-99.99,,,-99.99,,2013-02-12 01:42:00,
2013-02-11 20:52:00,35.0,32.0,-100.00,WSW,250,14.0,23.0,86,-99.99,,,-99.99,,2013-02-12 01:52:00,
2013-02-11 21:02:00,35.0,32.0,-100.00,WSW,255,11.0,24.0,87,-99.99,,,-99.99,,2013-02-12 02:02:00,
2013-02-11 21:12:00,35.0,32.0,-100.00,West,260,10.0,25.0,88,-99.99,,,-99.99,,2013-02-12 02:12:00,
2013-02-11 21:22:00,35.0,32.0,-100.00,West,280,12.0,19.0,90,-99.99,,,-99.99,,2013-02-12 02:22:00,
2013-02-11 21:32:00,35.0,32.0,-100.00,WSW,245,11.0,25.0,90,-99.99,,,-99.99,,2013-02-12 02:32:00,
2013-02-11 21:42:00,35.0,32.0,-100.00,WSW,245,20.0,29.0,90,-99.99,,,-99.99,,2013-02-12 02:42:00,
2013-02-11 21:52:00,35.0,32.0,-100.00,WSW,250,17.0,25.0,90,-99.99,,,-99.99,,2013-02-12 02:52:00,
2013-02-11 22:02:00,35.0,32.0,-100.00,WSW,255,12.0,26.0,90,-99.99,,,-99.99,,2013-02-12 03:02:00,
2013-02-11 22:11:00,35.0,32.0,-100.00,WSW,250,14.0,21.0,90,-99.99,,,-99.99,,2013-02-12 03:11:00,
2013-02-11 22:21:00,34.0,32.0,-100.00,West,270,10.0,24.0,90,-99.99,,,-99.99,,2013-02-12 03:21:00,
2013-02-11 22:32:00,34.0,32.0,-100.00,WSW,250,12.0,30.0,91,-99.99,,,-99.99,,2013-02-12 03:32:00,
2013-02-11 22:42:00,34.0,31.0,-100.00,WSW,245,16.0,26.0,91,-99.99,,,-99.99,,2013-02-12 03:42:00,
2013-02-11 22:51:00,34.0,31.0,-100.00,West,260,11.0,27.0,91,-99.99,,,-99.99,,2013-02-12 03:51:00,
2013-02-11 23:01:00,34.0,31.0,-100.00,WSW,250,14.0,23.0,91,-99.99,,,-99.99,,2013-02-12 04:01:00,
2013-02-11 23:11:00,34.0,31.0,-100.00,West,265,11.0,24.0,91,-99.99,,,-99.99,,2013-02-12 04:11:00,
2013-02-11 23:21:00,34.0,31.0,-100.00,WSW,250,13.0,23.0,91,-99.99,,,-99.99,,2013-02-12 04:21:00,
2013-02-11 23:32:00,34.0,31.0,-100.00,West,270,12.0,24.0,91,-99.99,,,-99.99,,2013-02-12 04:32:00,
2013-02-11 23:42:00,34.0,31.0,-100.00,WSW,255,12.0,21.0,91,-99.99,,,-99.99,,2013-02-12 04:42:00,
2013-02-11 23:51:00,33.0,31.0,-100.00,WSW,240,12.0,23.0,92,-99.99,,,-99.99,,2013-02-12 04:51:00,